Location: Caltech
(34.1382°N, 118.1253°W)
Time: 16:09:12
(UTC-07:00)

Cosmos 2219 - Visible Passes

Search period start: 04 May 2015 00:00
Search period end: 14 May 2015 00:00
Orbit: 835 x 859 km, 71.1° (Epoch: 03 May)

Date Brightness Start Highest point End Pass type
(mag) Time Alt. Az. Time Alt. Az. Time Alt. Az.
04 May 5.1 20:28:11 10° NNE 20:30:54 14° NE 20:33:54 10° E visible
04 May 3.1 22:10:09 10° NNW 22:15:45 73° WSW 22:15:58 72° SW visible
05 May 5.1 20:14:52 10° NNE 20:17:28 14° NE 20:20:23 10° E visible
05 May 3.2 21:56:45 10° NNW 22:02:22 75° WSW 22:03:14 62° SSW visible
06 May 5.1 20:01:34 10° NNE 20:04:03 13° NE 20:06:51 10° E visible
06 May 3.2 21:43:21 10° NNW 21:48:58 77° WSW 21:50:32 48° S visible
07 May 3.2 21:29:57 10° NNW 21:35:34 79° WSW 21:37:54 37° S visible
08 May 3.2 21:16:32 10° NNW 21:22:10 81° WSW 21:25:18 27° SSE visible
09 May 3.2 21:03:08 10° NNW 21:08:46 83° WSW 21:12:47 20° SSE visible
10 May 3.2 20:49:44 10° NNW 20:55:22 85° WSW 21:00:18 14° SSE visible
11 May 3.2 20:36:20 10° NNW 20:41:58 87° WSW 20:47:36 10° SSE visible
12 May 3.2 20:22:56 10° NNW 20:28:35 89° WSW 20:34:12 10° SSE visible
13 May 3.2 20:09:32 10° NNW 20:15:11 89° ENE 20:20:49 10° SSE visible
